When you browse on this site, cookies collect data to enhance your experience and personalize the content and advertising you see.
Visit our Privacy Policy to learn more. By continuing to use the site, you agree to this use of cookies and data.
  • în România
  • Lista ţărilor
  • Pe 7 zile
  • Temperatura apei
  • Hartă satelitară
  • Meteo pe hartă
  • Widget-uri
  • user-avatar
    Intrare

    Meteo pe oră la Gopalganj

    Astăzi, 25 Aprilie, Joi

    Timp Temperatura Precipitaţii Vânt Presiune Umiditate
    00:00 +35°C° 0 mm 3 m/s 749 mmHg 32%
    01:00 +35°C° 0 mm 3 m/s 749 mmHg 33%
    02:00 +34°C° 0 mm 2 m/s 748 mmHg 34%
    03:00 +34°C° 0 mm 2 m/s 748 mmHg 35%
    04:00 +32°C° 0 mm 2 m/s 748 mmHg 36%
    05:00 +32°C° 0 mm 2 m/s 748 mmHg 37%
    06:00 +31°C° 0 mm 3 m/s 748 mmHg 38%
    07:00 +34°C° 0 mm 3 m/s 749 mmHg 35%
    08:00 +36°C° 0 mm 4 m/s 749 mmHg 32%
    09:00 +38°C° 0 mm 4 m/s 750 mmHg 30%
    10:00 +40°C° 0 mm 4 m/s 749 mmHg 27%
    11:00 +40°C° 0 mm 3 m/s 749 mmHg 25%
    12:00 +42°C° 0 mm 3 m/s 749 mmHg 23%
    13:00 +42°C° 0 mm 2 m/s 749 mmHg 22%
    14:00 +42°C° 0 mm 2 m/s 748 mmHg 21%
    15:00 +42°C° 0 mm 1 m/s 747 mmHg 20%
    16:00 +42°C° 0 mm 2 m/s 747 mmHg 21%
    17:00 +42°C° 0 mm 2 m/s 747 mmHg 21%
    18:00 +42°C° 0 mm 3 m/s 746 mmHg 22%
    19:00 +40°C° 0 mm 3 m/s 746 mmHg 23%
    20:00 +39°C° 0 mm 3 m/s 746 mmHg 25%
    21:00 +38°C° 0 mm 2 m/s 747 mmHg 27%
    22:00 +37°C° 0 mm 2 m/s 747 mmHg 28%
    23:00 +37°C° 0 mm 3 m/s 747 mmHg 30%

    Mâine, 26 Aprilie, Vineri

    Timp Temperatura Precipitaţii Vânt Presiune Umiditate
    00:00 +36°C° 0 mm 3 m/s 747 mmHg 32%
    01:00 +35°C° 0 mm 2 m/s 746 mmHg 34%
    02:00 +35°C° 0 mm 2 m/s 746 mmHg 35%
    03:00 +34°C° 0 mm 2 m/s 745 mmHg 37%
    04:00 +34°C° 0 mm 2 m/s 745 mmHg 38%
    05:00 +33°C° 0 mm 3 m/s 745 mmHg 39%
    06:00 +33°C° 0 mm 3 m/s 745 mmHg 40%
    07:00 +35°C° 0 mm 4 m/s 746 mmHg 36%
    08:00 +37°C° 0 mm 4 m/s 747 mmHg 32%
    09:00 +40°C° 0 mm 5 m/s 747 mmHg 27%
    10:00 +41°C° 0 mm 4 m/s 747 mmHg 25%
    11:00 +43°C° 0 mm 3 m/s 747 mmHg 22%
    12:00 +44°C° 0 mm 3 m/s 747 mmHg 19%
    13:00 +45°C° 0 mm 3 m/s 746 mmHg 17%
    14:00 +46°C° 0 mm 2 m/s 746 mmHg 15%
    15:00 +47°C° 0 mm 2 m/s 745 mmHg 13%
    16:00 +46°C° 0 mm 3 m/s 745 mmHg 13%
    17:00 +46°C° 0 mm 3 m/s 744 mmHg 13%
    18:00 +46°C° 0 mm 3 m/s 744 mmHg 12%
    19:00 +44°C° 0 mm 4 m/s 744 mmHg 15%
    20:00 +43°C° 0 mm 4 m/s 745 mmHg 18%
    21:00 +41°C° 0 mm 4 m/s 746 mmHg 21%
    22:00 +40°C° 0 mm 4 m/s 746 mmHg 23%
    23:00 +40°C° 0 mm 5 m/s 746 mmHg 26%

    Poimâine, 27 Aprilie, Sâmbătă

    Timp Temperatura Precipitaţii Vânt Presiune Umiditate
    00:00 +39°C° 0 mm 5 m/s 746 mmHg 29%
    01:00 +37°C° 0 mm 5 m/s 745 mmHg 31%
    02:00 +36°C° 0 mm 4 m/s 745 mmHg 32%
    03:00 +35°C° 0 mm 4 m/s 745 mmHg 34%
    04:00 +35°C° 0 mm 4 m/s 745 mmHg 35%
    05:00 +34°C° 0 mm 4 m/s 745 mmHg 36%
    06:00 +34°C° 0 mm 4 m/s 745 mmHg 38%
    07:00 +35°C° 0 mm 4 m/s 745 mmHg 35%
    08:00 +37°C° 0 mm 5 m/s 746 mmHg 32%
    09:00 +40°C° 0 mm 6 m/s 747 mmHg 29%
    10:00 +41°C° 0 mm 5 m/s 747 mmHg 27%
    11:00 +43°C° 0 mm 4 m/s 746 mmHg 24%
    12:00 +44°C° 0 mm 4 m/s 746 mmHg 22%
    13:00 +45°C° 0 mm 3 m/s 745 mmHg 19%
    14:00 +46°C° 0 mm 3 m/s 744 mmHg 16%
    15:00 +47°C° 0 mm 3 m/s 744 mmHg 13%
    16:00 +47°C° 0 mm 3 m/s 743 mmHg 12%
    17:00 +48°C° 0 mm 4 m/s 743 mmHg 12%
    18:00 +47°C° 0 mm 4 m/s 743 mmHg 11%
    19:00 +45°C° 0 mm 3 m/s 743 mmHg 13%
    20:00 +43°C° 0 mm 3 m/s 744 mmHg 14%
    21:00 +41°C° 0 mm 2 m/s 744 mmHg 16%
    22:00 +40°C° 0 mm 3 m/s 744 mmHg 19%
    23:00 +39°C° 0 mm 3 m/s 744 mmHg 23%

    28 Aprilie, Duminică

    Timp Temperatura Precipitaţii Vânt Presiune Umiditate
    00:00 +37°C° 0 mm 4 m/s 744 mmHg 26%
    01:00 +37°C° 0 mm 4 m/s 744 mmHg 30%
    02:00 +36°C° 0 mm 3 m/s 744 mmHg 35%
    03:00 +35°C° 0 mm 3 m/s 743 mmHg 39%
    04:00 +34°C° 0 mm 3 m/s 744 mmHg 43%
    05:00 +34°C° 0 mm 4 m/s 744 mmHg 46%
    06:00 +33°C° 0 mm 4 m/s 744 mmHg 50%
    07:00 +35°C° 0 mm 5 m/s 745 mmHg 46%
    08:00 +36°C° 0 mm 5 m/s 745 mmHg 42%
    09:00 +39°C° 0 mm 6 m/s 746 mmHg 38%
    10:00 +40°C° 0 mm 5 m/s 746 mmHg 33%
    11:00 +42°C° 0 mm 5 m/s 745 mmHg 28%
    12:00 +44°C° 0 mm 4 m/s 745 mmHg 23%
    13:00 +45°C° 0 mm 3 m/s 745 mmHg 19%
    14:00 +46°C° 0 mm 2 m/s 744 mmHg 16%
    15:00 +46°C° 0 mm 1 m/s 743 mmHg 12%
    16:00 +47°C° 0 mm 2 m/s 743 mmHg 11%
    17:00 +47°C° 0 mm 2 m/s 743 mmHg 11%
    18:00 +46°C° 0 mm 2 m/s 742 mmHg 11%
    19:00 +45°C° 0 mm 3 m/s 743 mmHg 13%
    20:00 +43°C° 0 mm 3 m/s 743 mmHg 16%
    21:00 +40°C° 0 mm 3 m/s 744 mmHg 18%
    22:00 +40°C° 0 mm 4 m/s 744 mmHg 24%
    23:00 +40°C° 0 mm 5 m/s 744 mmHg 30%

    29 Aprilie, Luni

    Timp Temperatura Precipitaţii Vânt Presiune Umiditate
    00:00 +39°C° 0 mm 6 m/s 744 mmHg 36%
    01:00 +37°C° 0 mm 5 m/s 744 mmHg 41%
    02:00 +36°C° 0 mm 5 m/s 744 mmHg 45%
    03:00 +35°C° 0 mm 5 m/s 743 mmHg 49%
    04:00 +35°C° 0 mm 5 m/s 744 mmHg 51%
    05:00 +34°C° 0 mm 5 m/s 744 mmHg 53%
    06:00 +34°C° 0 mm 4 m/s 745 mmHg 55%
    07:00 +35°C° 0 mm 5 m/s 745 mmHg 52%
    08:00 +36°C° 0 mm 5 m/s 746 mmHg 48%
    09:00 +38°C° 0 mm 6 m/s 747 mmHg 45%
    10:00 +40°C° 0 mm 6 m/s 746 mmHg 41%
    11:00 +42°C° 0 mm 5 m/s 746 mmHg 36%
    12:00 +43°C° 0 mm 5 m/s 746 mmHg 32%
    13:00 +44°C° 0 mm 4 m/s 745 mmHg 27%
    14:00 +46°C° 0 mm 3 m/s 744 mmHg 22%
    15:00 +47°C° 0 mm 2 m/s 743 mmHg 17%
    16:00 +47°C° 0 mm 2 m/s 743 mmHg 16%
    17:00 +47°C° 0 mm 3 m/s 743 mmHg 15%
    18:00 +47°C° 0 mm 3 m/s 742 mmHg 14%
    19:00 +45°C° 0 mm 3 m/s 743 mmHg 17%
    20:00 +43°C° 0 mm 3 m/s 743 mmHg 19%
    21:00 +41°C° 0 mm 2 m/s 744 mmHg 22%
    22:00 +40°C° 0 mm 3 m/s 744 mmHg 24%
    23:00 +39°C° 0 mm 3 m/s 744 mmHg 26%

    30 Aprilie, Marţi

    Timp Temperatura Precipitaţii Vânt Presiune Umiditate
    00:00 +38°C° 0 mm 4 m/s 744 mmHg 29%
    01:00 +37°C° 0 mm 5 m/s 743 mmHg 37%
    02:00 +36°C° 0 mm 5 m/s 743 mmHg 45%
    03:00 +35°C° 0 mm 6 m/s 743 mmHg 53%
    04:00 +34°C° 0 mm 6 m/s 743 mmHg 56%
    05:00 +34°C° 0 mm 5 m/s 744 mmHg 60%
    06:00 +33°C° 0 mm 5 m/s 744 mmHg 63%
    07:00 +34°C° 0 mm 5 m/s 745 mmHg 59%
    08:00 +36°C° 0 mm 6 m/s 745 mmHg 54%
    09:00 +38°C° 0 mm 6 m/s 746 mmHg 50%
    10:00 +40°C° 0 mm 5 m/s 745 mmHg 44%
    11:00 +41°C° 0 mm 5 m/s 745 mmHg 37%
    12:00 +43°C° 0 mm 4 m/s 745 mmHg 31%
    13:00 +44°C° 0 mm 3 m/s 744 mmHg 26%
    14:00 +46°C° 0 mm 3 m/s 743 mmHg 21%
    15:00 +47°C° 0 mm 2 m/s 742 mmHg 16%
    16:00 +47°C° 0 mm 3 m/s 742 mmHg 15%
    17:00 +47°C° 0 mm 3 m/s 742 mmHg 13%
    18:00 +48°C° 0 mm 4 m/s 741 mmHg 11%
    19:00 +46°C° 0 mm 3 m/s 742 mmHg 13%
    20:00 +43°C° 0 mm 2 m/s 742 mmHg 15%
    21:00 +41°C° 0 mm 2 m/s 742 mmHg 17%
    22:00 +41°C° 0 mm 2 m/s 742 mmHg 19%
    23:00 +40°C° 0 mm 2 m/s 742 mmHg 21%
    Arată mai mult